RYS7276 LCPH-EPKT

Flight info

Callsign RYS7276
Flight time N/A
Altitude 36000
Route GENOS DCT PEDER DCT EVENO UM601 EXELA UN127 LMO DCT ATFIR DCT NARKA DCT KEKED DCT LENOV
Aircraft B738/M-SDE2E3FGHIRWXY/LB1

Departure

Time 2026-04-16 09:43
Airport Paphos International Airport (LCPH)

Arrival

Time N/A
Airport Katowice Wojciech Korfanty International Airport (EPKT)
Time Latitude Longitude Altitude Speed Heading
2026-04-16 09:18 34.71343 32.48738 -87 ft 0 kts 155°
2026-04-16 09:32 34.71349 32.48734 45 ft 3 kts 155°
2026-04-16 09:32 34.71369 32.48723 45 ft 3 kts 156°
2026-04-16 09:32 34.71391 32.48712 40 ft 3 kts 160°
2026-04-16 09:32 34.71410 32.48702 45 ft 3 kts 127°
2026-04-16 09:33 34.71413 32.48695 42 ft 3 kts 67°
2026-04-16 09:33 34.71405 32.48671 42 ft 1 kts 67°
2026-04-16 09:33 34.71404 32.48670 42 ft 0 kts 67°
2026-04-16 09:36 34.71405 32.48672 42 ft 1 kts 66°
2026-04-16 09:36 34.71415 32.48696 42 ft 5 kts 63°
2026-04-16 09:37 34.71439 32.48757 45 ft 10 kts 65°
2026-04-16 09:37 34.71473 32.48846 45 ft 12 kts 65°
2026-04-16 09:37 34.71531 32.48844 45 ft 12 kts 296°
2026-04-16 09:37 34.71558 32.48751 43 ft 12 kts 284°
2026-04-16 09:38 34.71589 32.48662 45 ft 11 kts 292°
2026-04-16 09:38 34.71616 32.48574 45 ft 11 kts 290°
2026-04-16 09:38 34.71642 32.48488 45 ft 11 kts 290°
2026-04-16 09:38 34.71670 32.48403 45 ft 12 kts 304°
2026-04-16 09:39 34.71749 32.48393 45 ft 14 kts 22°
2026-04-16 09:39 34.71838 32.48400 45 ft 14 kts 316°
2026-04-16 09:39 34.71881 32.48275 44 ft 21 kts 290°
2026-04-16 09:39 34.71941 32.48076 45 ft 29 kts 291°
2026-04-16 09:40 34.72010 32.47854 45 ft 27 kts 290°
2026-04-16 09:40 34.72071 32.47654 46 ft 24 kts 290°
2026-04-16 09:40 34.72125 32.47478 45 ft 21 kts 291°
2026-04-16 09:40 34.72175 32.47311 44 ft 21 kts 290°
2026-04-16 09:41 34.72199 32.47193 42 ft 12 kts 258°
2026-04-16 09:41 34.72210 32.47135 41 ft 8 kts 327°
2026-04-16 09:41 34.72224 32.47143 42 ft 2 kts 69°
2026-04-16 09:41 34.72220 32.47160 42 ft 2 kts 108°
2026-04-16 09:42 34.72216 32.47175 40 ft 0 kts 109°
2026-04-16 09:42 34.72213 32.47184 39 ft 11 kts 109°
2026-04-16 09:42 34.72101 32.47550 45 ft 81 kts 110°
2026-04-16 09:42 34.71828 32.48446 45 ft 143 kts 110°
2026-04-16 09:43 34.71436 32.49755 217 ft 179 kts 110°
2026-04-16 09:43 34.70962 32.51158 1005 ft 177 kts 112°
2026-04-16 09:43 34.70469 32.52577 1681 ft 186 kts 110°
2026-04-16 09:43 34.69998 32.54067 2244 ft 201 kts 109°
2026-04-16 09:44 34.69378 32.55654 2594 ft 218 kts 129°
2026-04-16 09:44 34.68055 32.56656 2854 ft 240 kts 164°
2026-04-16 09:44 34.66307 32.56696 3077 ft 267 kts 192°
2026-04-16 09:44 34.64601 32.55680 3615 ft 281 kts 223°
2026-04-16 09:45 34.63519 32.53672 4203 ft 292 kts 254°
2026-04-16 09:45 34.63367 32.51263 5080 ft 288 kts 281°
2026-04-16 09:45 34.63763 32.48923 6122 ft 276 kts 283°
2026-04-16 09:45 34.64015 32.46677 7099 ft 272 kts 273°
2026-04-16 09:46 34.63909 32.44334 7659 ft 284 kts 264°
2026-04-16 09:46 34.63652 32.41942 8342 ft 287 kts 263°
2026-04-16 09:46 34.63410 32.39529 9161 ft 288 kts 264°
2026-04-16 09:46 34.63407 32.37107 9905 ft 290 kts 279°
2026-04-16 09:47 34.63754 32.34683 10570 ft 292 kts 279°
2026-04-16 09:47 34.64085 32.32268 11382 ft 290 kts 278°
2026-04-16 09:47 34.64404 32.29823 12019 ft 295 kts 277°
2026-04-16 09:47 34.64720 32.27343 12634 ft 302 kts 276°
2026-04-16 09:48 34.65041 32.24768 12789 ft 323 kts 276°
2026-04-16 09:48 34.65385 32.21990 12967 ft 343 kts 276°
2026-04-16 09:48 34.65747 32.19060 13347 ft 355 kts 276°
2026-04-16 09:48 34.66107 32.16075 13965 ft 358 kts 275°
2026-04-16 09:49 34.66359 32.13064 14635 ft 359 kts 272°
2026-04-16 09:49 34.66557 32.10041 15311 ft 359 kts 272°
2026-04-16 09:49 34.66747 32.07010 15949 ft 362 kts 272°
2026-04-16 09:49 34.66945 32.03956 16578 ft 364 kts 273°
2026-04-16 09:50 34.67149 32.00922 17171 ft 366 kts 273°
2026-04-16 09:50 34.67363 31.97833 17768 ft 369 kts 274°
2026-04-16 09:50 34.67580 31.94710 18361 ft 372 kts 274°
2026-04-16 09:50 34.67816 31.91574 18856 ft 375 kts 277°
2026-04-16 09:51 34.68588 31.88528 19289 ft 382 kts 296°
2026-04-16 09:51 34.69906 31.85718 19813 ft 384 kts 299°
2026-04-16 09:51 34.71291 31.82924 20306 ft 388 kts 300°
2026-04-16 09:51 34.72680 31.80149 20754 ft 391 kts 300°
2026-04-16 09:52 34.74093 31.77315 21248 ft 394 kts 300°
2026-04-16 09:52 34.75508 31.74455 21744 ft 395 kts 300°
2026-04-16 09:52 34.76923 31.71575 22182 ft 399 kts 300°
2026-04-16 09:52 34.78349 31.68656 22583 ft 403 kts 300°
2026-04-16 09:53 34.79780 31.65719 23108 ft 404 kts 300°
2026-04-16 09:53 34.81212 31.62770 23542 ft 407 kts 300°
2026-04-16 09:53 34.82653 31.59797 23869 ft 411 kts 300°
2026-04-16 09:53 34.84113 31.56784 24222 ft 413 kts 300°
2026-04-16 09:54 34.85575 31.53761 24596 ft 415 kts 300°
2026-04-16 09:54 34.87024 31.50765 24970 ft 417 kts 299°
2026-04-16 09:54 34.88494 31.47722 25364 ft 418 kts 299°
2026-04-16 09:54 34.89973 31.44658 25689 ft 421 kts 299°
2026-04-16 09:55 34.91464 31.41566 25970 ft 425 kts 299°
2026-04-16 09:55 34.92960 31.38462 26329 ft 426 kts 298°
2026-04-16 09:55 34.94459 31.35348 26723 ft 427 kts 298°
2026-04-16 09:55 34.95966 31.32216 27025 ft 429 kts 298°
2026-04-16 09:56 34.97483 31.29059 27305 ft 433 kts 298°
2026-04-16 09:56 34.99008 31.25883 27610 ft 435 kts 298°
2026-04-16 09:56 35.00517 31.22736 27933 ft 437 kts 298°
2026-04-16 09:56 35.02053 31.19532 28256 ft 438 kts 298°
2026-04-16 09:57 35.03595 31.16311 28528 ft 441 kts 298°
2026-04-16 09:57 35.05145 31.13071 28802 ft 443 kts 298°
2026-04-16 09:57 35.06701 31.09816 29085 ft 445 kts 298°
2026-04-16 09:57 35.08263 31.06544 29357 ft 447 kts 298°
2026-04-16 09:58 35.09832 31.03255 29696 ft 448 kts 298°
2026-04-16 09:58 35.11398 30.99969 30093 ft 447 kts 297°
2026-04-16 09:58 35.12957 30.96696 30456 ft 445 kts 297°
2026-04-16 09:58 35.14486 30.93483 30819 ft 443 kts 297°
2026-04-16 09:59 35.16032 30.90230 31160 ft 442 kts 297°
2026-04-16 09:59 35.17613 30.87004 31431 ft 443 kts 301°
2026-04-16 09:59 35.19525 30.84040 31677 ft 448 kts 309°
2026-04-16 09:59 35.21658 30.81266 31995 ft 447 kts 310°
2026-04-16 10:00 35.23804 30.78524 32312 ft 446 kts 310°
2026-04-16 10:00 35.25951 30.75777 32579 ft 446 kts 310°
2026-04-16 10:00 35.28087 30.73028 32854 ft 446 kts 310°
2026-04-16 10:01 35.32301 30.67549 33424 ft 444 kts 309°
2026-04-16 10:01 35.34413 30.64783 33660 ft 444 kts 309°
2026-04-16 10:01 35.36521 30.62015 33933 ft 444 kts 309°
2026-04-16 10:01 35.38625 30.59250 34186 ft 443 kts 309°
2026-04-16 10:02 35.40723 30.56490 34441 ft 442 kts 309°